Location: Vihti�l�
(61.3833°N, 23.0667°E)
Time: 05:00:59
(UTC+00:00)

deb Chang Zheng 4 - Pass Details

Date: 29 November 2020
Orbit: 601 x 623 km, 98.6° (Epoch: 22 January)

Event Time Altitude Azimuth Distance (km) Brightness Sun altitude
Rises 03:45:49 0° 19° (NNE) 2,909 7.2 -22.4°
Reaches altitude 10° 03:48:01 10° 21° (NNE) 2,002 6.3 -22.1°
Maximum altitude 03:52:22 76° 106° (ESE) 650 3.7 -21.6°
Drops below altitude 10° 03:56:44 10° 194° (SSW) 1,998 6.1 -21.1°
Sets 03:58:55 0° 196° (SSW) 2,902 6.9 -20.8°
